Temp
52 52 52 52 52 52 52 59 53 68 69 58 62 57 65 58 70 73 70 69 67 64 64 62 62 59 59 63 64 59 61 56 49 56 62 65 62 56 51 33 32 39 40 38
51 52 52 51 51 52 58 56 61 68 66 52 58 65 67 67 68 68 67 65 66 68 63 57 60 60 61 63 62 55 58 53 44 50 55 55 51 58 58 46 42 34 36 36
51 51 51 51 51 52 56 57 54 61 61 62 58 61 61 61 68 67 68 67 68 64 62 64 58 58 59 62 61 54 56 54 49 41 45 51 45 45 55 50 38 39 40 43
51 51 51 51 50 51 54 58 56 62 54 55 60 63 65 62 60 68 69 65 65 63 57 59 57 59 59 61 56 59 58 48 51 53 54 54 49 49 51 47 49 41 44 45
51 51 51 50 50 50 54 54 55 59 60 63 60 58 62 63 63 64 63 62 64 64 59 59 56 58 58 56 61 58 59 44 50 45 51 50 44 49 52 52 53 47 48 47
51 50 50 50 50 50 49 65 65 58 57 60 59 60 62 65 64 64 68 66 62 58 59 63 63 63 62 60 56 54 53 50 46 39 47 41 38 41 47 45 51 50 43 50
50 50 50 50 50 49 47 57 59 53 53 61 61 66 66 64 64 61 66 67 60 63 70 68 66 64 63 61 60 61 53 50 48 40 43 29 43 54 55 52 53 55 54 55
50 49 49 49 49 50 47 55 55 53 49 63 64 65 65 64 63 62 63 65 67 70 66 57 53 53 54 56 59 59 60 54 44 39 36 40 45 52 49 48 47 56 52 55
50 49 49 49 49 49 48 55 57 55 51 58 65 64 63 58 56 58 60 66 69 67 62 57 48 44 49 48 52 60 59 58 46 43 37 30 45 56 60 59 41 57 57 54
49 49 49 49 49 49 48 52 58 56 50 63 61 61 61 65 61 56 57 57 57 63 58 53 50 46 54 46 46 47 48 48 41 41 38 41 54 58 60 37 39 58 56 55
50 49 49 49 49 49 47 51 58 56 53 57 63 65 61 65 64 53 57 56 58 57 54 55 53 51 51 48 51 48 46 43 41 43 38 32 58 57 45 52 58 56 56 59
49 49 49 49 49 49 49 49 63 64 54 54 65 65 66 65 64 63 60 61 59 61 58 58 57 52 51 50 41 54 43 47 43 44 42 55 59 58 59 59 55 57 61 62
49 49 49 49 48 49 48 47 54 58 56 59 62 61 67 70 68 71 60 65 65 63 64 62 59 52 57 47 49 49 51 55 47 49 51 54 57 59 61 61 59 64 64 63
48 49 49 48 48 48 48 46 54 53 54 50 58 69 65 70 71 71 70 66 67 67 66 61 59 53 57 54 55 52 54 54 53 51 53 55 57 59 61 63 65 65 64 63
48 48 48 48 48 48 48 50 52 56 50 47 57 65 67 69 69 69 69 66 64 63 59 59 56 57 56 58 56 48 57 53 51 48 55 54 56 61 64 61 61 61 61 59
48 48 48 47 47 47 45 47 55 58 59 50 53 64 63 67 68 67 66 67 66 66 62 59 60 62 57 52 50 57 61 63 63 56 60 59 62 64 63 60 61 61 59 59
48 47 47 47 47 46 41 47 50 49 51 52 53 54 63 67 67 65 65 66 65 65 61 60 58 57 55 58 49 57 62 61 61 61 62 59 61 57 62 61 61 60 61 59
47 46 46 46 47 47 48 55 52 52 56 58 53 52 56 66 59 57 65 61 63 62 60 61 58 57 58 52 58 59 62 62 62 62 63 59 61 62 61 63 61 58 57 57
45 45 46 47 44 42 54 53 52 58 55 47 57 50 48 63 61 62 61 64 55 61 58 59 59 57 50 57 57 59 61 60 58 60 61 61 60 59 59 60 59 56 55 55
45 47 41 37 44 52 53 54 51 52 57 57 54 63 53 60 60 57 58 61 56 50 58 60 55 54 60 62 62 63 63 61 60 56 55 57 58 58 58 58 58 56 55 54
47 39 38 46 51 54 47 38 43 49 50 57 59 62 54 65 56 56 62 56 58 50 53 53 52 50 57 62 62 64 62 61 62 61 59 61 59 57 56 55 56 55 55 53
43 39 40 40 47 43 36 38 49 50 49 59 58 59 62 62 67 60 59 56 57 48 57 52 49 55 61 61 61 61 59 61 61 61 61 60 59 59 56 55 54 55 55 55
45 37 33 39 39 32 33 32 45 48 58 61 61 57 61 61 61 60 57 51 48 58 49 47 53 58 61 61 61 57 59 62 61 60 60 59 58 59 57 55 56 56 54 55
34 32 30 34 33 36 45 50 54 60 60 61 60 57 58 61 57 56 51 57 55 46 43 45 55 58 60 60 58 58 58 60 59 58 58 57 57 56 56 56 56 54 50 49
33 33 29 35 47 55 57 60 61 60 63 61 58 59 60 57 52 56 53 47 45 49 49 54 59 60 60 57 56 58 58 58 57 58 57 56 56 56 56 56 55 54 52 51
35 35 34 47 50 51 57 58 55 62 62 63 62 58 54 53 55 50 45 47 47 55 62 61 60 59 59 57 59 59 59 58 58 58 58 58 57 56 56 56 55 55 54 53
36 35 43 45 46 54 54 56 57 64 60 55 61 53 52 60 50 49 56 53 60 61 61 61 61 59 58 59 59 58 58 58 58 58 59 58 59 58 56 53 55 56 55 53
MSLP
1024.15 1023.61 1022.98 1022.37 1021.64 1020.63 1019.88 1018.54 1016.29 1014.97 1015.29 1014.93 1013.20 1011.96 1010.63 1009.96 1008.85 1008.82 1008.37 1008.40 1008.09 1008.05 1008.46 1008.60 1009.14 1010.09 1011.87 1012.85 1012.65 1011.99 1012.27 1011.96 1011.18 1010.68 1010.87 1011.05 1011.40 1011.97 1013.01 1015.12 1016.82 1016.84 1016.26 1016.26
1024.26 1023.75 1023.20 1022.59 1021.91 1021.36 1020.29 1017.72 1015.39 1015.10 1014.94 1013.56 1011.88 1010.95 1010.17 1010.02 1009.25 1008.92 1008.78 1008.71 1009.24 1009.21 1009.25 1009.86 1010.44 1011.42 1013.24 1013.51 1013.35 1013.77 1013.72 1012.68 1012.01 1011.27 1011.68 1013.05 1013.35 1012.87 1013.42 1015.72 1016.86 1017.29 1016.83 1016.74
1024.39 1023.87 1023.43 1022.88 1022.23 1021.74 1021.04 1017.99 1015.04 1014.49 1014.47 1012.96 1012.07 1010.53 1010.21 1009.96 1009.88 1009.57 1009.50 1009.36 1009.65 1009.68 1009.84 1010.58 1011.08 1011.92 1013.55 1014.11 1014.41 1014.66 1014.70 1013.84 1013.35 1013.40 1013.89 1014.49 1015.01 1015.32 1014.06 1015.43 1016.66 1016.95 1016.72 1016.55
1024.46 1024.09 1023.57 1022.99 1022.57 1021.93 1021.25 1017.78 1014.75 1013.43 1012.88 1012.60 1011.62 1010.60 1009.61 1009.50 1009.70 1009.90 1009.75 1009.74 1009.85 1009.89 1010.37 1010.88 1011.58 1012.47 1013.31 1014.00 1014.50 1014.67 1014.70 1014.41 1014.64 1014.70 1014.89 1014.95 1015.68 1015.66 1015.38 1015.75 1016.08 1016.48 1016.76 1016.60
1024.56 1024.23 1023.66 1023.10 1022.60 1021.83 1020.82 1017.66 1015.61 1014.33 1012.81 1011.73 1011.26 1010.43 1009.59 1009.16 1009.64 1009.92 1009.82 1009.90 1010.39 1010.76 1011.06 1011.84 1012.06 1012.81 1013.44 1013.90 1014.35 1014.71 1015.07 1015.60 1015.59 1016.11 1016.47 1016.78 1017.11 1016.59 1015.93 1015.90 1015.67 1016.60 1017.16 1016.97
1024.58 1024.30 1023.84 1023.36 1022.81 1022.10 1020.87 1017.00 1016.31 1015.67 1013.06 1011.93 1010.97 1010.26 1009.90 1009.28 1009.95 1010.78 1010.29 1010.28 1011.10 1012.02 1012.81 1013.23 1013.51 1013.89 1014.27 1014.66 1014.84 1015.00 1015.22 1015.59 1016.07 1016.87 1017.62 1018.50 1018.29 1018.23 1017.49 1017.66 1016.79 1017.11 1017.28 1017.57
1024.58 1024.35 1024.07 1023.63 1023.18 1022.88 1022.34 1019.56 1018.05 1016.33 1013.64 1011.82 1010.91 1009.90 1009.82 1009.95 1010.61 1010.72 1011.00 1011.53 1012.20 1013.46 1013.76 1013.78 1013.96 1014.23 1014.65 1014.99 1015.07 1015.23 1015.40 1015.92 1016.62 1017.61 1018.40 1019.12 1019.26 1018.53 1017.80 1017.54 1017.52 1017.76 1017.78 1018.01
1024.55 1024.36 1024.13 1023.83 1023.48 1023.10 1022.43 1020.78 1019.46 1017.46 1014.97 1012.05 1010.89 1010.29 1010.28 1010.88 1011.45 1011.89 1012.13 1012.77 1013.02 1013.71 1013.69 1013.77 1014.11 1014.46 1014.72 1015.24 1015.38 1015.49 1015.51 1015.84 1016.85 1017.61 1018.50 1019.49 1019.01 1018.31 1018.42 1017.98 1018.27 1018.23 1018.57 1018.40
1024.50 1024.40 1024.14 1023.84 1023.55 1023.12 1022.46 1021.03 1020.02 1018.93 1016.56 1013.04 1011.71 1011.06 1011.39 1011.80 1012.59 1013.09 1013.51 1013.98 1014.21 1014.24 1013.75 1013.49 1013.53 1014.16 1014.49 1014.98 1015.42 1015.62 1015.84 1016.15 1017.26 1017.71 1018.17 1018.93 1018.65 1018.23 1018.21 1017.96 1018.39 1018.64 1018.65 1018.82
1024.40 1024.34 1024.17 1023.89 1023.54 1023.20 1022.84 1021.42 1020.41 1019.42 1017.18 1013.96 1013.12 1012.17 1012.03 1012.35 1012.84 1013.60 1014.41 1015.01 1015.19 1014.99 1013.81 1013.31 1013.52 1014.43 1014.95 1015.02 1015.40 1015.75 1016.36 1016.98 1017.63 1017.98 1018.53 1019.00 1018.48 1018.44 1018.45 1018.72 1019.79 1018.82 1019.18 1019.28
1024.24 1024.24 1024.13 1023.87 1023.59 1023.29 1022.89 1021.48 1020.34 1019.59 1017.87 1015.59 1014.34 1013.72 1013.07 1012.56 1012.72 1013.80 1014.46 1014.95 1014.72 1014.62 1013.61 1013.07 1013.65 1014.10 1015.10 1015.70 1016.25 1016.52 1016.85 1017.41 1018.22 1018.41 1018.72 1018.84 1018.61 1018.61 1018.99 1019.27 1019.26 1019.48 1019.48 1019.13
1024.11 1024.13 1024.10 1023.92 1023.65 1023.37 1022.92 1021.65 1019.38 1019.24 1019.07 1016.73 1015.47 1014.88 1014.76 1014.47 1014.02 1013.45 1014.18 1013.65 1013.72 1013.66 1013.25 1013.33 1013.68 1014.22 1015.35 1015.64 1016.38 1017.40 1017.66 1018.27 1018.57 1018.93 1019.08 1018.79 1018.87 1018.95 1019.22 1019.42 1019.78 1019.54 1019.11 1019.03
1024.00 1024.02 1023.99 1023.86 1023.66 1023.31 1023.09 1022.44 1020.97 1019.38 1018.25 1015.99 1015.30 1014.59 1014.65 1014.63 1014.45 1013.88 1013.82 1013.52 1013.68 1013.85 1014.05 1013.45 1013.76 1014.28 1014.82 1015.32 1015.84 1017.18 1018.11 1018.62 1018.78 1018.82 1019.58 1019.27 1019.19 1019.43 1019.47 1019.39 1019.65 1019.17 1019.42 1019.71
1023.86 1023.93 1023.89 1023.81 1023.56 1023.34 1023.11 1022.64 1021.24 1020.68 1019.06 1016.72 1015.10 1014.84 1014.65 1014.84 1014.49 1014.24 1014.21 1014.13 1014.14 1014.27 1014.16 1014.00 1014.00 1014.77 1015.66 1015.41 1015.89 1016.78 1017.65 1018.27 1018.14 1018.59 1019.29 1019.55 1019.66 1019.57 1019.59 1019.41 1019.39 1019.55 1020.02 1020.41
1023.70 1023.77 1023.71 1023.68 1023.38 1023.14 1022.72 1022.19 1021.24 1020.70 1020.13 1017.55 1015.15 1014.83 1014.79 1014.73 1014.67 1014.53 1014.54 1014.60 1014.46 1014.35 1014.34 1014.25 1014.65 1015.64 1016.03 1015.99 1016.49 1017.43 1017.48 1017.65 1017.50 1018.00 1018.85 1019.24 1019.58 1019.87 1019.87 1020.09 1020.36 1020.70 1020.88 1021.29
1023.53 1023.57 1023.53 1023.42 1023.18 1022.96 1022.65 1021.20 1019.44 1019.83 1019.39 1018.34 1015.28 1014.99 1014.71 1014.70 1014.58 1014.63 1014.71 1014.63 1014.37 1014.08 1014.05 1014.77 1015.32 1015.94 1016.25 1016.09 1016.08 1017.02 1017.10 1017.45 1017.52 1018.44 1019.04 1019.59 1019.82 1020.01 1020.38 1020.79 1021.20 1021.58 1021.98 1022.36
1023.27 1023.31 1023.34 1023.21 1023.04 1022.78 1022.47 1021.11 1020.39 1020.33 1020.72 1018.16 1015.43 1014.71 1014.69 1014.58 1014.61 1014.78 1014.90 1014.92 1014.64 1014.42 1014.71 1014.70 1015.40 1016.11 1016.71 1015.51 1015.81 1016.98 1017.17 1017.99 1018.48 1019.03 1019.39 1019.83 1020.09 1020.74 1021.18 1021.65 1022.00 1022.45 1022.93 1023.42
1023.00 1023.09 1023.00 1022.77 1022.54 1022.29 1021.25 1019.41 1019.42 1020.14 1019.10 1016.97 1014.48 1014.46 1014.75 1014.64 1014.45 1014.58 1014.78 1014.80 1014.85 1014.86 1014.80 1015.13 1015.13 1016.13 1015.99 1015.36 1016.06 1016.98 1017.46 1018.11 1018.63 1019.28 1019.63 1020.47 1020.99 1021.27 1021.73 1022.15 1022.61 1023.25 1023.73 1024.20
1022.86 1022.79 1022.56 1022.16 1021.91 1021.21 1018.96 1018.55 1018.57 1018.85 1018.60 1016.51 1013.34 1013.39 1013.49 1014.49 1014.02 1014.12 1014.60 1014.33 1014.38 1014.99 1014.46 1014.44 1015.01 1014.94 1015.25 1015.25 1016.32 1016.97 1017.56 1018.24 1019.05 1019.86 1020.36 1020.74 1021.34 1021.94 1022.43 1022.94 1023.55 1023.98 1024.54 1025.05
1022.66 1022.35 1022.13 1021.25 1020.03 1019.15 1018.63 1018.72 1018.20 1017.91 1016.51 1015.47 1013.30 1012.05 1012.58 1013.22 1013.11 1013.72 1013.93 1013.78 1013.84 1014.22 1014.13 1014.68 1014.71 1014.69 1015.35 1015.76 1016.61 1017.28 1017.92 1018.78 1019.59 1020.17 1020.76 1021.39 1021.90 1022.62 1023.19 1023.75 1024.35 1024.93 1025.48 1025.92
1022.14 1022.12 1021.46 1020.22 1019.20 1018.73 1018.60 1017.54 1016.57 1015.75 1014.19 1012.98 1011.96 1011.13 1011.83 1012.29 1012.38 1012.69 1012.94 1013.04 1013.20 1013.22 1013.93 1014.22 1014.22 1014.59 1015.36 1016.17 1017.02 1017.67 1018.46 1019.37 1019.84 1020.37 1021.22 1022.08 1022.75 1023.53 1024.16 1024.86 1025.42 1025.90 1026.26 1026.67
1022.23 1022.63 1022.01 1020.88 1018.64 1017.97 1017.52 1015.71 1014.21 1012.89 1011.64 1010.57 1010.37 1010.63 1011.30 1011.85 1011.82 1012.13 1012.91 1012.41 1012.83 1013.03 1013.87 1013.86 1013.46 1014.00 1015.23 1016.37 1017.26 1018.18 1019.15 1019.77 1020.45 1021.23 1021.89 1022.75 1023.49 1024.19 1024.92 1025.57 1026.08 1026.46 1026.81 1027.21
1022.17 1022.28 1021.33 1018.80 1017.78 1016.64 1014.76 1012.86 1010.92 1009.60 1008.91 1009.16 1009.63 1010.49 1011.09 1012.06 1012.18 1011.99 1012.27 1012.30 1012.74 1013.14 1013.52 1013.32 1012.99 1013.99 1015.31 1016.49 1017.56 1018.80 1019.55 1020.27 1021.01 1021.95 1022.68 1023.46 1024.13 1024.84 1025.50 1026.10 1026.60 1027.04 1027.44 1027.78
1022.20 1021.34 1019.48 1017.14 1015.34 1013.62 1011.36 1009.88 1008.81 1008.09 1008.24 1008.84 1009.60 1010.60 1011.03 1011.20 1011.48 1011.88 1011.85 1011.86 1012.51 1012.49 1012.38 1012.14 1012.66 1013.78 1015.22 1016.66 1017.98 1018.93 1019.98 1020.82 1021.65 1022.55 1023.33 1023.99 1024.71 1025.43 1026.05 1026.58 1027.11 1027.66 1028.28 1028.76
1021.69 1020.36 1017.58 1014.60 1012.19 1010.14 1009.12 1008.51 1007.90 1007.83 1008.03 1008.65 1009.81 1010.35 1010.46 1010.78 1011.38 1011.16 1011.55 1011.76 1011.23 1010.73 1010.23 1010.96 1012.29 1013.86 1015.31 1016.82 1018.21 1019.28 1020.28 1021.21 1022.12 1022.91 1023.62 1024.35 1025.13 1025.73 1026.32 1026.94 1027.52 1028.03 1028.47 1028.91
1020.87 1018.78 1015.84 1012.07 1010.43 1009.06 1007.94 1007.38 1007.62 1007.47 1007.88 1008.78 1009.09 1009.11 1009.76 1009.87 1009.98 1010.24 1010.24 1010.00 1009.32 1008.89 1008.90 1010.55 1012.44 1014.06 1015.65 1017.10 1018.30 1019.46 1020.55 1021.43 1022.25 1023.02 1023.76 1024.49 1025.16 1025.81 1026.47 1027.16 1027.67 1028.09 1028.41 1028.76
1018.56 1016.14 1013.93 1012.30 1010.79 1008.50 1008.09 1007.64 1007.24 1007.34 1007.58 1007.75 1007.36 1007.81 1008.09 1008.34 1008.70 1008.75 1008.45 1008.12 1007.89 1008.57 1009.79 1011.36 1012.79 1014.20 1015.72 1017.18 1018.45 1019.66 1020.65 1021.48 1022.25 1023.04 1023.78 1024.50 1025.22 1025.96 1026.57 1027.14 1027.78 1028.22 1028.64 1028.92
Wind_Speed
16 18 19 19 21 18 7 4 4 5 5 7 7 10 12 4 3 3 2 4 6 5 7 4 4 5 8 7 8 8 6 5 9 15 5 1 6 7 8 5 3 4 4 4
15 17 18 19 19 13 7 4 6 3 5 6 8 12 10 4 5 3 2 2 3 3 5 4 2 6 6 7 7 8 11 4 6 8 9 14 12 11 2 9 2 3 2 2
13 16 17 18 19 14 6 5 4 5 5 9 9 10 8 8 3 4 1 4 2 2 2 2 1 3 5 3 8 5 4 7 10 6 5 5 6 10 5 5 2 3 2 8
12 15 17 17 17 17 6 5 5 2 6 7 11 11 7 12 6 6 5 4 3 2 1 2 1 2 5 7 4 1 7 5 4 7 11 9 3 5 4 1 8 6 4 9
10 13 16 17 17 19 4 6 5 8 8 4 11 7 9 12 7 2 7 4 4 1 4 5 2 1 3 6 7 4 4 2 2 5 6 7 9 12 10 6 0 15 11 9
8 12 15 16 16 12 4 6 5 5 8 5 7 9 11 6 11 1 2 8 9 11 9 9 10 10 9 6 4 3 3 2 2 3 9 8 5 8 9 5 5 7 7 8
6 10 13 15 15 12 3 8 8 4 7 7 10 11 12 11 8 6 10 10 11 8 11 13 12 11 10 8 5 7 4 5 2 4 5 2 2 3 4 8 11 8 8 7
4 8 12 13 14 13 3 7 6 5 8 8 1 3 6 12 7 9 9 7 14 12 10 9 7 6 9 9 7 5 3 2 3 2 7 4 4 2 2 3 6 7 5 6
2 7 11 13 14 12 3 8 5 5 7 7 10 8 10 11 9 9 12 13 6 2 5 2 2 1 2 3 5 0 5 5 2 1 1 2 4 2 4 8 3 8 6 9
2 5 10 12 14 11 4 7 10 5 7 5 10 5 8 10 8 7 10 7 4 5 5 5 3 3 2 3 3 2 4 3 3 0 4 2 2 5 2 3 2 6 11 7
3 3 9 12 13 10 5 9 10 5 6 9 7 8 7 5 6 8 10 6 4 5 5 2 2 3 2 3 2 2 1 1 2 3 3 1 6 3 3 6 10 10 4 4
3 2 7 11 12 8 7 5 5 5 6 6 8 7 5 8 9 3 9 3 12 6 3 2 3 2 3 7 4 2 2 3 1 3 3 6 7 5 11 7 8 7 3 10
2 3 6 10 11 10 6 5 8 7 6 9 7 3 2 5 7 5 5 1 4 1 3 1 2 3 1 3 3 5 3 5 3 4 2 5 5 9 1 3 4 9 12 12
2 3 6 9 11 9 8 4 7 8 5 5 5 4 2 3 3 4 4 6 5 4 3 1 3 3 2 2 4 3 1 8 7 10 7 6 7 4 6 3 9 11 10 11
4 4 6 8 11 10 6 6 7 9 4 5 3 5 2 4 4 4 3 5 5 5 3 3 3 3 1 2 3 3 6 5 5 5 9 7 6 7 7 10 12 12 11 13
4 5 5 9 9 9 2 4 7 10 6 5 4 4 5 6 7 7 7 5 5 2 1 3 3 3 2 5 3 7 6 5 10 9 11 8 9 9 13 10 11 11 13 13
4 3 5 9 8 3 4 4 4 14 8 5 4 6 5 8 9 4 4 2 2 2 2 1 3 4 3 2 3 13 9 11 12 11 13 11 10 6 12 11 10 12 13 13
2 2 7 8 9 9 10 8 16 10 6 6 4 6 6 9 6 5 5 4 3 2 3 2 4 4 4 1 12 14 13 13 15 11 9 12 7 9 11 10 11 12 11 11
3 5 8 4 3 3 5 3 9 4 4 5 3 7 6 7 7 5 5 5 4 3 4 4 5 4 3 10 16 15 15 11 14 10 13 11 12 11 9 12 12 12 12 11
3 3 2 3 6 6 4 1 4 6 5 6 6 8 6 10 8 7 6 5 5 4 3 5 4 5 5 14 14 12 13 12 13 11 11 11 11 11 12 12 12 12 11 10
2 2 3 4 7 5 1 4 5 6 6 6 7 9 10 9 9 8 6 4 4 3 5 5 5 4 10 16 15 12 13 13 8 11 13 12 13 12 12 12 12 10 10 10
3 1 4 4 5 3 5 4 6 8 8 9 9 10 9 8 5 3 3 3 2 3 7 3 3 8 18 17 17 15 12 12 14 15 16 15 15 13 12 11 10 10 10 9
2 1 4 5 3 5 7 9 9 7 8 11 11 11 8 2 3 3 4 4 4 9 4 4 2 16 17 17 15 16 13 12 17 17 15 16 15 14 13 11 10 10 9 8
1 4 6 5 7 7 8 9 10 6 11 12 12 8 6 5 5 4 5 4 5 5 5 6 9 19 19 18 16 17 16 16 17 17 16 15 14 13 11 10 9 9 9 8
4 4 7 9 10 9 12 10 8 8 11 12 11 6 4 5 3 3 4 6 5 6 5 6 14 21 20 20 19 17 17 16 15 15 14 15 14 12 12 10 9 9 8 8
5 7 7 11 10 9 4 9 9 9 12 12 8 6 6 6 4 6 7 7 5 4 5 13 18 21 20 21 19 17 16 16 16 14 14 14 13 13 12 11 9 8 7 7
7 7 8 14 12 8 5 5 9 11 13 11 5 6 7 6 4 5 6 4 4 10 13 15 20 22 22 20 19 18 17 17 16 15 14 13 13 13 12 11 9 8 8 7
Wind_Direction
351 350 348 349 342 334 284 261 238 137 182 207 212 231 224 305 267 213 240 304 332 341 36 313 332 64 38 353 327 305 54 321 290 285 122 1 287 287 186 134 189 240 261 146
350 348 355 353 349 356 319 254 240 161 221 224 222 227 225 251 236 232 205 138 355 31 7 330 0 71 41 359 320 16 352 261 310 286 162 15 343 284 240 102 95 237 251 152
349 352 354 352 354 350 307 276 232 156 198 287 290 218 219 201 280 81 238 86 261 254 233 82 32 132 85 17 24 324 302 285 300 317 6 267 343 336 349 176 169 234 229 149
351 347 352 351 348 347 298 249 277 9 190 235 251 263 213 208 174 239 233 180 255 314 244 222 154 94 160 164 157 325 338 325 338 336 352 19 74 355 322 131 261 236 131 119
352 354 351 352 350 336 261 295 345 337 293 260 219 244 243 213 118 191 184 255 97 248 60 3 48 29 27 45 37 33 22 7 355 55 43 68 47 9 2 322 214 116 139 91
351 357 355 359 355 347 307 355 336 279 293 230 219 216 236 223 116 192 42 107 106 86 77 79 79 79 78 77 59 5 48 73 40 92 77 16 41 352 47 41 94 64 93 63
350 358 1 355 358 360 289 303 322 285 276 214 219 212 221 129 162 141 100 108 110 112 121 112 103 96 99 97 58 70 82 103 131 108 140 57 270 298 15 60 65 64 64 34
351 357 356 358 355 343 310 299 325 314 293 277 136 186 139 92 105 125 126 67 115 152 155 130 126 133 130 97 45 67 3 28 44 103 70 141 332 162 53 348 89 64 68 356
317 353 355 352 350 344 310 292 283 287 301 34 330 148 137 136 120 113 96 99 115 217 248 250 190 104 12 120 128 174 126 89 153 153 114 111 143 154 350 334 130 52 9 12
241 357 355 348 348 343 343 284 303 280 284 311 355 115 176 140 157 128 137 134 168 262 217 209 159 125 320 159 136 168 74 94 53 84 87 153 164 83 330 310 72 28 52 30
218 347 350 346 347 343 355 287 285 279 298 296 357 357 1 151 163 159 156 167 206 192 243 181 171 142 140 90 86 162 117 328 73 266 131 177 155 173 64 55 40 43 354 324
203 318 339 341 344 341 352 278 258 225 252 273 318 321 337 353 342 56 167 302 158 186 248 306 88 142 174 147 151 179 168 86 155 46 58 93 65 81 65 58 55 277 309 38
182 319 324 336 340 341 358 296 307 294 264 252 225 196 74 15 348 327 183 179 81 112 340 37 30 114 235 189 116 123 132 136 158 142 114 146 121 73 139 133 173 37 37 33
191 306 321 333 332 322 335 302 298 295 285 262 122 169 193 346 316 71 39 62 68 104 251 183 216 118 311 65 120 117 189 166 174 107 142 131 121 123 54 108 55 52 63 61
205 294 319 329 328 319 302 274 262 266 281 319 112 129 125 178 189 161 120 140 151 166 166 202 82 77 154 80 109 123 186 175 191 121 131 115 126 103 76 56 52 42 42 53
223 289 314 326 327 325 350 263 199 220 249 277 205 92 140 165 169 155 163 175 221 213 145 93 84 73 272 202 146 140 161 107 98 113 114 114 108 73 86 73 61 57 52 47
246 292 317 320 311 298 235 302 332 322 320 243 176 143 158 157 147 134 139 206 198 206 114 200 112 170 227 223 98 154 140 108 109 117 129 137 100 89 84 84 79 75 72 65
207 300 308 298 287 267 266 245 240 239 251 261 257 95 152 180 169 164 175 159 182 235 88 180 159 141 252 149 132 144 144 151 133 141 100 105 102 93 84 86 82 77 76 69
185 284 281 250 202 223 238 116 141 203 294 300 242 155 161 176 194 131 209 190 194 129 197 170 166 152 197 132 146 158 145 143 118 121 116 113 87 94 91 84 85 83 72 64
238 264 242 227 209 212 195 287 196 192 225 220 263 189 133 188 162 179 161 211 151 182 134 111 230 98 104 136 149 142 140 118 119 135 116 107 104 94 90 91 81 74 70 67
218 240 240 314 282 188 201 237 171 203 219 206 236 202 140 180 181 162 173 188 187 213 141 198 190 140 152 143 143 145 117 131 140 104 103 114 110 111 105 94 87 84 79 74
67 326 289 263 215 147 216 208 212 191 208 177 200 136 161 169 191 163 219 159 192 185 154 200 208 136 148 146 148 128 108 113 120 114 119 119 120 115 107 100 96 90 81 73
30 308 255 225 145 179 206 186 191 180 186 152 158 152 130 122 266 125 197 164 178 133 169 205 186 140 144 149 135 115 115 127 114 125 120 121 120 115 110 107 101 89 76 62
250 242 249 236 181 224 208 203 169 172 130 158 142 138 160 175 167 188 172 135 147 193 194 207 146 150 146 137 127 125 136 133 131 127 130 126 121 115 111 108 105 98 83 67
251 240 243 221 231 227 207 203 169 148 151 141 144 168 132 154 159 204 132 179 213 210 203 144 144 146 142 137 135 138 139 138 135 137 138 132 129 130 120 113 109 107 104 95
241 238 258 244 214 238 201 155 148 152 145 149 171 160 166 184 186 176 206 180 209 209 162 129 141 143 141 138 143 141 141 142 142 146 139 141 136 136 127 123 119 113 111 100
238 236 256 266 279 200 161 176 160 158 161 172 172 156 189 134 189 207 183 206 104 102 121 136 142 143 143 142 141 144 147 147 149 145 146 141 141 136 137 134 129 121 110 107